[[{"header":{"parameterUnit":"m.s-1","parameterCategory":1,"la1":30.2992,"la2":30.254,"lo1":-89.0895,"lo2":-89.0443,"dy":0.0025,"dx":0.0025,"nx":19,"ny":19,"refTime":"2026-04-23T09:00:00:Z","depth":0,"parameterNumber":2,"parameterNumberName":"U-component_of_WINDS"},"data":[0,0,0,-3.8594,-3.8597,-3.8725,-3.8726,-3.8894,-3.8896,0,0,0,0,0,0,0,0,0,0,0,-3.856,-3.8562,-3.8594,-3.8597,-3.8725,-3.8726,-3.8894,-3.8896,0,0,0,0,0,0,0,0,0,0,0,-3.856,-3.8561,-3.8563,-3.8598,-3.8725,-3.8726,-3.8894,-3.8795,0,0,0,0,0,0,0,0,0,0,-3.8669,-3.8643,-3.8561,-3.8563,-3.8598,-3.8725,-3.8726,-3.879,-3.8801,-3.8839,0,-3.8875,0,-3.8888,-3.8908,-3.8908,0,0,0,-3.8593,-3.8634,-3.8665,-3.8563,-3.86,-3.8725,-3.8666,-3.8796,-3.8809,-3.8853,-3.8877,-3.8883,-3.8891,-3.8909,-3.891,-3.9141,-3.9142,0,0,-3.8586,-3.8585,-3.8656,-3.8673,-3.8655,-3.8662,-3.867,-3.8804,-3.8829,-3.8878,-3.8887,-3.8894,-3.891,-3.8911,-3.914,-3.9141,0,0,0,-3.8568,-3.8581,-3.8608,-3.8666,-3.8689,-3.8666,-3.8675,-3.8823,-3.8832,-3.8889,-3.8896,-3.8911,-3.8913,-3.9138,-3.914,-3.92,0,0,0,-3.8564,-3.857,-3.8605,-3.8606,-3.8687,-3.8758,-3.8692,-3.8823,-3.8838,-3.8895,-3.8911,-3.8915,-3.9137,-3.9139,-3.9195,-3.9228,0,0,0,-3.855,-3.8569,-3.8589,-3.8606,-3.8661,-3.8756,-3.8773,-3.8826,-3.8842,-3.8908,-3.8915,-3.9136,-3.9139,-3.9191,-3.9221,-3.9286,0,0,0,-3.8535,-3.8641,-3.859,-3.8711,-3.866,-3.8793,-3.8772,-3.8871,-3.8935,-3.8912,-3.9137,-3.914,-3.919,-3.9217,-3.9282,-3.934,-3.9364,0,0,-3.8668,-3.8657,-3.8728,-3.8686,-3.8828,-3.8774,-3.8924,-3.8983,-3.899,-3.909,-3.9095,-3.9197,-3.9221,-3.9285,-3.9507,-3.9527,0,0,0,-3.877,-3.882,-3.8858,-3.8919,-3.8968,-3.9011,-3.9047,-3.9069,-3.9154,-3.9042,-3.924,-3.9254,-3.9292,-3.9319,-3.9336,-3.9367,-3.9154,-3.9153,-3.9153,-3.8955,-3.8959,-3.9075,-3.9094,-3.9153,-3.9189,-3.9237,-3.9272,-3.9258,-3.9305,-3.9333,-3.9468,-3.95,-3.9513,-3.9545,-3.9367,-3.9367,-3.9367,-3.9367,-3.9148,-3.9219,-3.9198,-3.9303,-3.9305,-3.9393,-3.9432,-3.9419,-3.9499,-3.9447,-3.948,-3.942,-3.9534,-3.9562,-3.9372,-3.9371,-3.937,-3.937,-3.937,-3.9268,-3.9302,-3.9327,-3.9415,-3.9481,-3.9496,-3.9575,-3.9574,-3.9575,-3.9608,-3.9637,-3.9636,-3.9632,-3.9622,-3.9623,-3.9623,-3.9624,-3.9624,-3.9624,-3.9381,-3.9408,-3.9474,-3.9533,-3.9571,-3.9622,-3.9658,-3.9695,-3.9736,-3.9729,-3.9729,-3.9709,-3.9546,-3.9503,-3.9631,-3.963,-3.9629,-3.9629,-3.9628,-3.9571,-3.9528,-3.9631,-3.9669,-3.9737,-3.9802,-3.9801,-3.9876,-3.9907,-3.9944,-3.9918,-3.9798,-3.9786,-3.9773,-3.9737,-3.9918,-3.9918,-3.9918,-3.9918,-3.967,-3.9665,-3.9768,-3.9829,-3.9888,-3.9897,-4.0011,-4.004,-4.0062,-4.0081,-4.0055,-4.0009,-3.9996,-3.9992,-3.9974,-3.994,-4.0169,-4.0169,-4.017,-3.9786,-3.9786,-3.9883,-3.9906,-3.9959,-4.0003,-4.0109,-4.0178,-4.0195,-4.018,-4.0095,-4.0084,-4.001,-3.9986,-3.9966,-3.9938,-3.9877,0,0]},{"header":{"parameterUnit":"m.s-1","parameterCategory":1,"la1":30.2992,"la2":30.254,"lo1":-89.0895,"lo2":-89.0443,"dy":0.0025,"dx":0.0025,"nx":19,"ny":19,"refTime":"2026-04-23T09:00:00:Z","depth":0,"parameterNumber":3,"parameterNumberName":"V-component_of_WINDS"},"data":[0,0,0,4.7155,4.7157,4.7225,4.7225,4.7323,4.7324,0,0,0,0,0,0,0,0,0,0,0,4.7145,4.7146,4.7155,4.7157,4.7225,4.7225,4.7323,4.7324,0,0,0,0,0,0,0,0,0,0,0,4.7144,4.7146,4.7147,4.7158,4.7225,4.7225,4.7323,4.7267,0,0,0,0,0,0,0,0,0,0,4.7199,4.7199,4.7145,4.7147,4.7158,4.7225,4.7225,4.7264,4.727,4.7298,0,4.7328,0,4.7328,4.7332,4.7332,0,0,0,4.715,4.7194,4.7204,4.7147,4.7159,4.7225,4.7192,4.7267,4.7275,4.7307,4.7329,4.7332,4.7329,4.7332,4.7333,4.7523,4.7524,0,0,4.7146,4.7161,4.7199,4.7209,4.7202,4.719,4.7194,4.7272,4.7296,4.7329,4.7334,4.7331,4.7333,4.7334,4.7522,4.7524,0,0,0,4.714,4.7159,4.7167,4.7205,4.7217,4.7192,4.7197,4.7292,4.7294,4.7335,4.7332,4.7334,4.7335,4.7521,4.7523,4.7599,0,0,0,4.7138,4.7156,4.7166,4.7176,4.7216,4.7256,4.7216,4.7288,4.7296,4.7332,4.7334,4.7336,4.7519,4.7522,4.7594,4.7631,0,0,0,4.7137,4.7156,4.7169,4.7177,4.7207,4.7254,4.726,4.729,4.7295,4.7332,4.7337,4.7518,4.7521,4.7589,4.7624,4.7684,0,0,0,4.714,4.7236,4.7171,4.7276,4.7206,4.7302,4.7259,4.733,4.7371,4.7334,4.752,4.7522,4.7588,4.7619,4.768,4.7737,4.7763,0,0,4.7269,4.7252,4.7312,4.7256,4.7368,4.7291,4.7413,4.7435,4.7423,4.749,4.7494,4.7595,4.7623,4.7683,4.7907,4.7928,0,0,0,4.7358,4.7402,4.7428,4.7469,4.7489,4.7509,4.7511,4.7519,4.7575,4.7462,4.7634,4.7651,4.7685,4.7712,4.7729,4.7757,4.7536,4.7536,4.7536,4.7561,4.7543,4.7641,4.763,4.767,4.7672,4.7701,4.7712,4.7681,4.7722,4.7741,4.7879,4.7911,4.7924,4.7954,4.7772,4.7772,4.7772,4.7773,4.7746,4.7803,4.7761,4.7841,4.782,4.7886,4.7891,4.7867,4.7924,4.7864,4.7893,4.7827,4.7948,4.7972,4.7778,4.7777,4.7776,4.7776,4.7776,4.7874,4.7899,4.7908,4.7965,4.801,4.7996,4.8053,4.8032,4.8012,4.8042,4.8058,4.8057,4.8051,4.8052,4.8052,4.8053,4.8053,4.8054,4.8054,4.8003,4.8012,4.8063,4.8093,4.8116,4.8143,4.8146,4.8167,4.8185,4.8165,4.8165,4.8128,4.7964,4.7922,4.8061,4.806,4.8059,4.8058,4.8058,4.8194,4.8147,4.8227,4.825,4.8283,4.8328,4.8301,4.8346,4.8361,4.8389,4.8347,4.823,4.821,4.8196,4.816,4.8353,4.8353,4.8353,4.8353,4.8301,4.8289,4.8365,4.8403,4.8438,4.8422,4.851,4.8513,4.8508,4.8515,4.8485,4.8437,4.8424,4.8411,4.8393,4.8359,4.8598,4.8598,4.8598,4.8415,4.8407,4.8486,4.8483,4.8507,4.8527,4.8608,4.8652,4.8637,4.8607,4.852,4.851,4.8432,4.8409,4.8375,4.8347,4.8285,0,0]}]]